Number	,Function	,Value	,Unit	,Judge	,Range	,Date	,Time	,
1	,DC	,03.483	,V	,Pass	,40	,2016.05.24	,14:17:38	,
2	,DC	,03.561	,V	,Pass	,40	,2016.05.24	,14:17:39	,
3	,DC	,03.600	,V	,Pass	,40	,2016.05.24	,14:17:40	,
4	,DC	,03.676	,V	,Pass	,40	,2016.05.24	,14:17:41	,
5	,DC	,03.715	,V	,Pass	,40	,2016.05.24	,14:17:42	,
6	,DC	,03.794	,V	,Pass	,40	,2016.05.24	,14:17:43	,
7	,DC	,03.836	,V	,Pass	,40	,2016.05.24	,14:17:44	,
8	,DC	,03.912	,V	,Pass	,40	,2016.05.24	,14:17:45	,
9	,DC	,03.951	,V	,Pass	,40	,2016.05.24	,14:17:46	,
10	,DC	,04.026	,V	,Pass	,40	,2016.05.24	,14:17:47	,
11	,DC	,04.063	,V	,Pass	,40	,2016.05.24	,14:17:48	,
12	,DC	,04.140	,V	,Pass	,40	,2016.05.24	,14:17:49	,
13	,DC	,04.177	,V	,Pass	,40	,2016.05.24	,14:17:50	,
14	,DC	,04.252	,V	,Pass	,40	,2016.05.24	,14:17:51	,
15	,DC	,04.291	,V	,Pass	,40	,2016.05.24	,14:17:52	,
16	,DC	,04.367	,V	,Pass	,40	,2016.05.24	,14:17:53	,
17	,DC	,04.389	,V	,Pass	,40	,2016.05.24	,14:17:54	,
18	,DC	,04.445	,V	,Pass	,40	,2016.05.24	,14:17:55	,
19	,DC	,04.478	,V	,Pass	,40	,2016.05.24	,14:17:56	,
20	,DC	,04.592	,V	,Pass	,40	,2016.05.24	,14:17:57	,
21	,DC	,04.639	,V	,Pass	,40	,2016.05.24	,14:17:58	,
22	,DC	,04.669	,V	,Pass	,40	,2016.05.24	,14:17:59	,
23	,DC	,04.803	,V	,Pass	,40	,2016.05.24	,14:18:00	,
24	,DC	,04.814	,V	,Pass	,40	,2016.05.24	,14:18:01	,
25	,DC	,04.862	,V	,Pass	,40	,2016.05.24	,14:18:02	,
26	,DC	,04.891	,V	,Pass	,40	,2016.05.24	,14:18:03	,
27	,DC	,04.923	,V	,Pass	,40	,2016.05.24	,14:18:04	,
28	,DC	,05.064	,V	,Pass	,40	,2016.05.24	,14:18:05	,
29	,DC	,05.096	,V	,Pass	,40	,2016.05.24	,14:18:06	,
30	,DC	,05.121	,V	,Pass	,40	,2016.05.24	,14:18:07	,
31	,DC	,05.180	,V	,Pass	,40	,2016.05.24	,14:18:08	,
32	,DC	,05.213	,V	,Pass	,40	,2016.05.24	,14:18:09	,
33	,DC	,05.328	,V	,Pass	,40	,2016.05.24	,14:18:10	,
34	,DC	,05.347	,V	,Pass	,40	,2016.05.24	,14:18:11	,
35	,DC	,05.399	,V	,Pass	,40	,2016.05.24	,14:18:12	,
36	,DC	,00.000	,V	,Pass	,40	,2016.05.24	,14:18:13	,
37	,DC	,   .0L	,V	,Fail	,40	,2016.05.24	,14:18:14	,
38	,DC	,   .0L	,V	,Fail	,40	,2016.05.24	,14:18:15	,
39	,DC	,   .0L	,V	,Fail	,40	,2016.05.24	,14:18:16	,
40	,DC	,   .0L	,V	,Fail	,40	,2016.05.24	,14:18:17	,
41	,DC	,   .0L	,V	,Fail	,40	,2016.05.24	,14:18:18	,
42	,DC	,00.000	,V	,Pass	,40	,2016.05.24	,14:18:19	,
43	,DC	,05.866	,V	,Pass	,40	,2016.05.24	,14:18:20	,
44	,DC	,05.897	,V	,Pass	,40	,2016.05.24	,14:18:21	,
45	,DC	,05.921	,V	,Pass	,40	,2016.05.24	,14:18:22	,
46	,DC	,05.976	,V	,Pass	,40	,2016.05.24	,14:18:23	,
47	,DC	,06.006	,V	,Pass	,40	,2016.05.24	,14:18:24	,
48	,DC	,06.117	,V	,Pass	,40	,2016.05.24	,14:18:25	,
49	,DC	,06.134	,V	,Pass	,40	,2016.05.24	,14:18:26	,
50	,DC	,06.183	,V	,Pass	,40	,2016.05.24	,14:18:27	,
51	,DC	,06.212	,V	,Pass	,40	,2016.05.24	,14:18:28	,
52	,DC	,06.272	,V	,Pass	,40	,2016.05.24	,14:18:29	,
53	,DC	,06.304	,V	,Pass	,40	,2016.05.24	,14:18:30	,
54	,DC	,06.369	,V	,Pass	,40	,2016.05.24	,14:18:31	,
55	,DC	,06.401	,V	,Pass	,40	,2016.05.24	,14:18:32	,
56	,DC	,06.433	,V	,Pass	,40	,2016.05.24	,14:18:33	,
57	,DC	,06.433	,V	,Pass	,40	,2016.05.24	,14:18:34	,
58	,DC	,06.433	,V	,Pass	,40	,2016.05.24	,14:18:35	,
59	,DC	,06.433	,V	,Pass	,40	,2016.05.24	,14:18:36	,
60	,DC	,06.433	,V	,Pass	,40	,2016.05.24	,14:18:37	,
61	,DC	,06.433	,V	,Pass	,40	,2016.05.24	,14:18:38	,
62	,DC	,06.433	,V	,Pass	,40	,2016.05.24	,14:18:39	,
63	,DC	,06.433	,V	,Pass	,40	,2016.05.24	,14:18:40	,
64	,DC	,06.433	,V	,Pass	,40	,2016.05.24	,14:18:41	,
65	,DC	,06.433	,V	,Pass	,40	,2016.05.24	,14:18:42	,
66	,DC	,06.433	,V	,Pass	,40	,2016.05.24	,14:18:43	,
67	,DC	,06.433	,V	,Pass	,40	,2016.05.24	,14:18:44	,
68	,DC	,06.433	,V	,Pass	,40	,2016.05.24	,14:18:45	,
69	,DC	,06.433	,V	,Pass	,40	,2016.05.24	,14:18:46	,
70	,DC	,06.433	,V	,Pass	,40	,2016.05.24	,14:18:47	,
71	,DC	,06.433	,V	,Pass	,40	,2016.05.24	,14:18:48	,
72	,DC	,06.433	,V	,Pass	,40	,2016.05.24	,14:18:49	,
73	,DC	,06.433	,V	,Pass	,40	,2016.05.24	,14:18:50	,
74	,DC	,06.433	,V	,Pass	,40	,2016.05.24	,14:18:51	,
75	,DC	,06.433	,V	,Pass	,40	,2016.05.24	,14:18:52	,
76	,DC	,06.433	,V	,Pass	,40	,2016.05.24	,14:18:53	,
77	,DC	,06.433	,V	,Pass	,40	,2016.05.24	,14:18:54	,
78	,DC	,06.433	,V	,Pass	,40	,2016.05.24	,14:18:55	,
79	,DC	,06.433	,V	,Pass	,40	,2016.05.24	,14:18:56	,
80	,DC	,06.433	,V	,Pass	,40	,2016.05.24	,14:18:57	,
81	,DC	,06.433	,V	,Pass	,40	,2016.05.24	,14:18:58	,
82	,DC	,06.433	,V	,Pass	,40	,2016.05.24	,14:18:59	,
83	,DC	,06.433	,V	,Pass	,40	,2016.05.24	,14:19:00	,
84	,DC	,06.433	,V	,Pass	,40	,2016.05.24	,14:19:01	,
85	,DC	,06.433	,V	,Pass	,40	,2016.05.24	,14:19:02	,
86	,DC	,06.433	,V	,Pass	,40	,2016.05.24	,14:19:03	,
87	,DC	,06.433	,V	,Pass	,40	,2016.05.24	,14:19:04	,
88	,DC	,06.433	,V	,Pass	,40	,2016.05.24	,14:19:05	,
89	,DC	,06.433	,V	,Pass	,40	,2016.05.24	,14:19:06	,
90	,DC	,06.433	,V	,Pass	,40	,2016.05.24	,14:19:07	,
91	,DC	,06.433	,V	,Pass	,40	,2016.05.24	,14:19:08	,
